Погода в Ашхабаде

Погода в Ашхабаде : погода сейчас, прогноз погоды и архив. Всё, что Вы хотите узнать о погоде в Ашхабаде!

Поиск расширенной информации на нашем сайте:

Другие новости

Новости СМИ2

Главная страница сайта

Новости сайта

02.10.2013

Напоминаем, что на нашем новом сайте вы можете получить высокодетализированные прогнозы погоды по пунктам России, СНГ и мира (включающие важные для авиации метеовеличины, такие как направление и скорость ветра, видимость, явления погоды, количество и форма облачности, нижняя и верхняя граница облачности), а также ознакомиться с разнообразными материалами по авиационной метеорологии и подборкой полезных ссылок на эту тему.

Сайт Метеоцентр.Азия посвящён разработке технологий оптимизации авиаметеорологического обслуживания, включая проектирование и перспективное создание нескольких автоматизированных авиаметеорологических систем:
- система выпуска высокодетальных прогностических карт явлений погоды для нижнего воздушного пространства по России и ближнему зарубежью;
- система верификации прогнозов TAF (выпускаемых синоптиками официальных АМСГ РФ и ближнего зарубежья) и AUTOTAF (выпускаемых сайтом Метеоцентр.Азия) - выявление ошибок, онлайн-сопоставление с фактической погодой METAR, автоматическое внесение коррективов в прогнозы при резком отклонении фактической погоды от прогноза, подсчёт оправдываемости прогнозов по элементам и в целом;
- система обработки, анализа и отображения авиаметеорологической информации для применения провайдерами метеорологической информации.

Рекомендуем: вред курения

Погода в Ашхабаде - сегодня

Время (UTC), дата Ветер
(°,м/с) 
Видим.   Явления Облачность Т
(°С)
Тd
(°С)
f(%) Тe
(°С)
Pmin
(гПа)
dP
(гПа)
Po
(мм)
O2
(г/м3)
Тmin Tmax R s Состояние
почвы
09 22.04.17 110 (В) 10 км    9/0 средняя, верхняя 
[Ac trans|Ci fib]
+26.4 +4.5 24 +26  1014.4  -1.5  743  272           
12 22.04.17 120 (ЮВ) 10 км    9/0 средняя, верхняя 
[Ac trans|Ci fib]
+29.2 +2.5 18 +29  1012.4  -1.7  742  270           
15 22.04.17 120 (ЮВ) 10 км    10/5 1500 м средняя 
[Sc|Ac und]
+26 +4.3 25 +26  1013.3  0.6  742  272    +30.5       
18 22.04.17 120 (ЮВ) 10 км    8/5 1500 м средняя 
[Sc|Ac trans]
+22.8 +6.1 34 +23  1013.8  0.2  742  275    +30.5       
21 22.04.17 200 (Ю) 10 км    ясно 
+18.4 +9.3 55 +20  1015.2  1.1  749  281           
00 23.04.17 310 (СЗ) 10 км    ясно 
+18.6 +5.8 43 +18  1016.7  1.4  744  280           
03 23.04.17 290 (З) 10  4000 м  пыльный позёмок  ясно 
+15.8 +8.4 61 +15  1020.4  3.4  747  283           
06 23.04.17 290 (З) 10 км    ясно 
+21.4 +7.3 40 +21  1022  2.1  748  278  +15.5         
09 23.04.17 310 (СЗ) 10 км    ясно 
+23.9 +7 34 +24  1020.1  -1.8  747  276           
12 23.04.17 070 (В) 10 км    ясно 
+26.9 +6.5 27 +27  1016.7  -3  745  272           
15 23.04.17 120 (ЮВ) 10 км    ясно 
+25.6 +8.4 34 +26  1014.8  -1.9  743  272    +27.5       
18 23.04.17 200 (Ю) 10 км    ясно 
+20.2 +9.9 52 +21  1013.8  -1.5  742  277    +27.5       
21 23.04.17 230 (ЮЗ) 10 км    ясно 
+18.4 +9.8 57 +21  1011.1  -2.7  740  278           
00 24.04.17 150 (ЮВ) 10 км    ясно 
+20.4 +9.3 49 +21  1008.8  -2.1  739  275           
03 24.04.17 130 (ЮВ) 10 км    3/0 верхняя 
[Ci fib]
+19.2 +6.7 44 +20  1007.4  -1.6  737  276           
06 24.04.17 110 (В) 10 км    4/0 верхняя 
[Ci fib]
+30.5 +6.1 22 +31  1005.7  -0.7  737  266  +16.9         
09 24.04.17 120 (ЮВ) 4000 м  пыльный позёмок  10/0 средняя, верхняя 
[Ac trans|Ci fib]
+34.8 +2.3 13 +35  1004.7  -0.7  736  263           
12 24.04.17 100 (В) 10 км    9/3 1500 м средняя, верхняя 
[Sc|Ac trans|Ci fib]
+35 -0.7 10 +35  1003.9  -0.7  736  263           
15 24.04.17 100 (В) 10 км    9/3 1500 м средняя, верхняя 
[Sc|Ac trans|Ci fib]
+29.2 +3.6 20 +29  1005.9  1.5  737  268    +35.5       
18 24.04.17 290 (З) 11  1000 м  пыльная буря  6/3 1000 м средняя, верхняя 
[Sc|Ac trans|Ci fib]
+27.2 +10.5 35 +29  1008.9  2.8  739  269    +35.5       
21 24.04.17 320 (СЗ) 10 км    6/0 средняя, верхняя 
[Ac trans|Ci fib]
+20.6 +10.7 53 +23  1012.3  2.8  741  276           
00 25.04.17 290 (З) 10 км    5/0 верхняя 
[Ci fib]
+17.6 +11 65 +21  1014  1.4  742  279           
03 25.04.17 290 (З) 10 км    8/0 верхняя 
[Ci fib]
+17.5 +9.8 61 +19  1016.1  744  280           
06 25.04.17 300 (СЗ) 10 км    9/4 1500 м средняя, верхняя 
[Sc|Ac trans|Ci fib]
+20.8 +11.2 54 +24  1017.3  1.5  745  277  +16.1         
09 25.04.17 310 (СЗ) 10 км    4/0 средняя, верхняя 
[Ac trans|Ci fib]
+23.7 +11.4 46 +27  1016.5  -0.6  744  274           
Время (UTC), дата Ветер
(°,м/с) 
Видим.   Явления Облачность Т
(°С)
Тd
(°С)
f(%) Тe
(°С)
Pmin
(гПа)
dP
(гПа)
Po
(мм)
O2
(г/м3)
Тmin Tmax R s Состояние
почвы

Для получения пояснительной информации подведите курсор к названию столбца.

ПОГОДА в Ашхабаде - архив

Всё, что Вы хотите узнать о погоде в Ашхабаде - удобно и подробно!

Выберите нужную дату (начиная с 1 января 2015* года) и нажмите кнопку "Найти".
Будут отображены архивные сводки погоды по пункту Ашхабад, начиная с указанной даты.


Отображать данные в формате CSV (для использования в таблицах Excel)


Внимание! Наш архив погоды предназначен исключительно для личного некоммерческого использования в познавательных целях. Если Вам необходимы официальные справки о состоянии погоды (для производственных, юридических, коммерческих и т.п. целей), обращайтесь в органы Росгидромета.

*Примечание: данная дата относится к архиву по метеостанциям СССР (Россия, СНГ, Балтия).
Архив по метеостанциям Зарубежной Европы и Азии (кроме Китая) хранится 10 дней, по другим регионам земного шара (Китай, Африка, Америка, Австралия, Океания) - 1 день.

Ашхабад - район местоположения метеостанции


Название, широта, долгота, высота метеостанции:
Ашхабад (город) 38°ш. 58.3°д. 208 м над ур. моря [Туркменистан]

Дополнительная информация

В oтличие oт бoльшинства пoгoдных сайтoв мы публикуем пoдрoбную метеoинфoрмацию в детальнoм прoфессиoнальнoм фoрмате.

Характеристики температуры и влажнoсти вoздуха измеряются на высoте 2 м в тени вдали oт зданий и деревьев.
Скoрoсть ветра измеряется на высoте 10 м (на урoвне рoста челoвека скoрoсть ветра ниже в 1.5-2 раза). Если метеoстанция нахoдится в гoрoде или в лесу, тo скoрoсть ветра занижена на 2-4 м/с пo сравнению с oткрытым местoм. Скoрoсть ветра над акватoриями крупных рек и oзёр, а также на вершинах хoлмoв на 2-5 м/с выше, чем в oбычных услoвиях.
Атмoсфернoе давление в разных тoчках местнoсти мoжет значительнo oтличаться oт давления на метеoстанции, в зависимoсти oт услoвий рельефа (при пoдъёме на 10 м давление пoнижается примернo на 1 мм рт.ст.).